Regional Weather Roundup
Issued by NWS State College, PA

Home | Current Version | Previous Version | Text Only | Print | Product List | Glossary On
Versions: 1 2 3 4 5 6 7 8 9 10 11 12 13 14 15 16 17 18 19 20 21 22 23 24 25 26 27 28 29 30 31 32 33 34 35 36 37 38 39 40 41 42 43 44 45 46 47 48 49 50
000
ASUS41 KCTP 221803
RWRCTP
REGIONAL WEATHER ROUNDUP
NATIONAL WEATHER SERVICE STATE COLLEGE PA
200 PM EDT FRI SEP 22 2017

Note: "fair" indicates few or no clouds below 12,000 feet with no
significant weather and/or obstructions to visibility.

* = STATION THAT DOES NOT REPORT PRECIPITATION /E.G. RAIN...SNOW...ETC/
    THUNDER OR FOG.

PAZ002>004-007>009-013>016-020>023-029>032-221900-
WESTERN PENNSYLVANIA

CITY           SKY/WX    TMP DP  RH WIND       PRES   REMARKS
ERIE           CLOUDY    78  63  59 N6        30.13F
MEADVILLE      CLOUDY    81  55  40 NE7       30.15F
FRANKLIN*      CLOUDY    79  62  56 N5        30.16F
NEW CASTLE     FAIR      84  63  49 E7        30.13F
BEAVER COUNTY  SUNNY     84  57  39 N6        30.13F
BUTLER*        SUNNY     82  62  50 VRB5      30.13F
PITTSBURGH INT PTSUNNY   85  56  37 N5        30.12F
PITTSBURGH     SUNNY     82  55  39 VRB3      30.12F
INDIANA*       SUNNY     81  55  41 VRB7      30.15S
LATROBE        MOSUNNY   73  61  64 CALM      30.13F
WASHINGTON CO* SUNNY     84  57  39 NE3       30.13F
$$

PAZ004>006-010>012-017>019-024>028-033>037-041-042-045-046-049>053-221900-
CENTRAL PENNSYLVANIA

CITY           SKY/WX    TMP DP  RH WIND       PRES   REMARKS
BRADFORD       MOSUNNY   78  51  38 N6        30.17F
DUBOIS         SUNNY     81  43  26 CALM      30.13F
CLEARFIELD     SUNNY     81  58  45 CALM      30.13F
JOHNSTOWN      SUNNY     77  59  53 NW8       30.15F
ALTOONA        SUNNY     81  55  40 N6        30.12F
STATE COLLEGE  SUNNY     81  59  47 CALM      30.10F
WILLIAMSPORT   SUNNY     86  53  32 N6        30.05F
SELINSGROVE    SUNNY     82  61  48 NE10      30.06F
FT INDIANTOWN  PTSUNNY   82  57  43 N8        30.04F
CAPITAL CITY   MOSUNNY   84  59  42 N7        30.04F
HARRISBURG     MOSUNNY   83  61  47 N9        30.03F
YORK           CLOUDY    80  64  58 N9        30.05F
$$

PAZ038>040-043-044-047-048-054-055-060>062-067>071-221900-
EASTERN PENNSYLVANIA

CITY           SKY/WX    TMP DP  RH WIND       PRES   REMARKS
SCRANTON       SUNNY     81  44  27 NE13      30.07F
MOUNT POCONO   SUNNY     77  47  34 VRB5      30.09F
ALLENTOWN      SUNNY     84  52  33 NE7       30.02F
QUAKERTOWN*    CLEAR     81  54  39 N8        30.03F
READING        SUNNY     84  57  39 N3        30.01F
LANCASTER      SUNNY     84  60  44 NW6       30.03F
COATESVILLE    MOCLDY    77  52  41 N8        30.05F
POTTSTOWN      MOSUNNY   81  55  40 N6        30.03
BLUE BELL      MOSUNNY   79  59  50 N7        30.02F
DOYLESTOWN     SUNNY     83  56  39 NW9G17    30.00F
WILLOW GROVE   NOT AVBL
NORTH PHILA    MOSUNNY   83  58  42 N12       30.00F
PHILADELPHIA   CLOUDY    80  55  42 NW10      29.99F
$$



USA.gov is the U.S. government's official web portal to all federal, state and local government web resources and services.